Lake Hartwell Weather Center

Moon Phase Calendar



Lake Hartwell Water Level
Online Cameras

 


      

Current Conditions in Centerville
7/13/2024 1:06:32 PM

91°F
Feels Like 100
Clouds
Humidity
58%
Pressure
30.15"
Wind
6.9 mph (W)
Dew Point
74°F
UV Index
11/10 (Extreme)
Visibility
6 mi

Hourly Forecast

Date & Time Sat, Jul 13
1:00 PM
Sat, Jul 13
2:00 PM
Sat, Jul 13
3:00 PM
Sat, Jul 13
4:00 PM
Sat, Jul 13
5:00 PM
Sat, Jul 13
6:00 PM
Sat, Jul 13
7:00 PM
Sat, Jul 13
8:00 PM
Sat, Jul 13
9:00 PM
Sat, Jul 13
10:00 PM
Sat, Jul 13
11:00 PM
Sun, Jul 14
12:00 AM
Sun, Jul 14
1:00 AM
Sun, Jul 14
2:00 AM
Sun, Jul 14
3:00 AM
Sun, Jul 14
4:00 AM
Sun, Jul 14
5:00 AM
Sun, Jul 14
6:00 AM
Sun, Jul 14
7:00 AM
Sun, Jul 14
8:00 AM
Sun, Jul 14
9:00 AM
Sun, Jul 14
10:00 AM
Sun, Jul 14
11:00 AM
Sun, Jul 14
12:00 PM
Sun, Jul 14
1:00 PM
Sun, Jul 14
2:00 PM
Sun, Jul 14
3:00 PM
Sun, Jul 14
4:00 PM
Sun, Jul 14
5:00 PM
Sun, Jul 14
6:00 PM
Sun, Jul 14
7:00 PM
Sun, Jul 14
8:00 PM
Sun, Jul 14
9:00 PM
Sun, Jul 14
10:00 PM
Sun, Jul 14
11:00 PM
Mon, Jul 15
12:00 AM
Mon, Jul 15
1:00 AM
Mon, Jul 15
2:00 AM
Mon, Jul 15
3:00 AM
Mon, Jul 15
4:00 AM
Mon, Jul 15
5:00 AM
Mon, Jul 15
6:00 AM
Mon, Jul 15
7:00 AM
Mon, Jul 15
8:00 AM
Mon, Jul 15
9:00 AM
Mon, Jul 15
10:00 AM
Mon, Jul 15
11:00 AM
Mon, Jul 15
12:00 PM
Condition
Clouds

Clouds

Clouds

Clouds

Clouds

Clouds

Clouds

Clouds

Clouds

Clouds

Clouds

Clouds

Clouds

Clouds

Clouds

Clouds

Clouds

Clouds

Clouds

Clouds

Clear

Clear

Clear

Clouds

Clouds

Clouds

Clouds

Clouds

Clouds

Clouds

Clouds

Clouds

Clouds

Clouds

Clouds

Clouds

Rain

Clouds

Clouds

Clouds

Clear

Clear

Clear

Clear

Clear

Clear

Clear

Clear
Temperature 91°F92°F94°F92°F88°F89°F90°F87°F84°F81°F79°F79°F79°F78°F77°F76°F75°F74°F74°F78°F83°F89°F93°F97°F99°F100°F100°F99°F101°F93°F88°F88°F85°F83°F81°F77°F75°F75°F74°F74°F73°F73°F73°F78°F84°F90°F94°F98°F
Feels Like 100°F100°F99°F95°F90°F91°F91°F88°F84°F82°F79°F79°F79°F78°F77°F76°F75°F74°F74°F79°F84°F89°F94°F97°F98°F100°F99°F98°F100°F93°F88°F88°F86°F84°F82°F78°F76°F75°F75°F74°F74°F73°F74°F78°F85°F91°F95°F99°F
Cloudiness 75%60%78%83%77%76%76%74%86%89%93%94%96%95%67%52%40%30%24%20%0%2%9%20%30%40%99%99%100%100%99%100%99%100%97%93%78%72%13%11%8%6%6%5%4%8%7%7%
Visibility 6 mi6 mi6 mi6 mi6 mi6 mi6 mi6 mi6 mi6 mi6 mi6 mi6 mi6 mi6 mi6 mi6 mi6 mi6 mi6 mi6 mi6 mi6 mi6 mi6 mi6 mi6 mi6 mi6 mi6 mi6 mi6 mi6 mi6 mi6 mi6 mi6 mi6 mi6 mi6 mi6 mi6 mi6 mi6 mi6 mi6 mi6 mi6 mi
Precipitation 0%0%0%0%0%0%0%0%0%0%0%0%0%0%0%0%0%0%0%0%0%0%0%0%0%0%0%0%0%0%0%0%0%0%0%0%20%0%0%0%0%0%0%0%0%0%0%0%
Humidity 58%52%45%43%47%43%40%46%49%55%58%58%59%60%62%62%64%65%66%58%49%42%36%30%26%24%25%24%23%33%40%42%45%48%51%60%67%67%68%70%71%72%72%64%52%42%35%30%
Dew Point 74°F72°F69°F67°F65°F64°F63°F64°F62°F63°F63°F63°F63°F63°F62°F62°F62°F61°F62°F62°F62°F62°F62°F61°F59°F57°F58°F57°F56°F60°F61°F62°F62°F61°F61°F62°F63°F63°F63°F63°F63°F63°F64°F64°F64°F64°F63°F61°F
Pressure 30.15"30.15"30.12"30.12"30.09"30.09"30.09"30.12"30.12"30.12"30.12"30.12"30.12"30.12"30.09"30.09"30.09"30.09"30.12"30.12"30.12"30.12"30.09"30.09"30.06"30.03"30"29.97"29.97"29.97"30"30"30"30.03"30.03"30.03"30.03"30.03"30.03"30"30"30"30"30.03"30.03"30.03"30"30"
Wind Speed 2.4 mph4.3 mph3.4 mph13.3 mph9.3 mph4.2 mph3.2 mph1.4 mph2.8 mph4.5 mph4.7 mph4.3 mph3 mph3 mph2.5 mph2.2 mph2.3 mph2.3 mph3.1 mph2.9 mph3.4 mph3.3 mph4.4 mph4.7 mph5.6 mph5.1 mph3.6 mph4.7 mph4.8 mph4.1 mph5.2 mph5.3 mph7.8 mph7.7 mph5.5 mph3.8 mph1.3 mph2.3 mph3.8 mph3.1 mph3.9 mph2.8 mph3 mph2.4 mph1.9 mph2.6 mph3.8 mph5.5 mph
Wind
Direction
299°
WNW
334°
NNW
339°
NNW
187°
S
176°
S
285°
WNW
325°
NW
53°
NE
28°
NNE
352°
N
330°
NNW
316°
NW
315°
NW
320°
NW
317°
NW
310°
NW
287°
WNW
275°
W
311°
NW
319°
NW
309°
NW
295°
WNW
294°
WNW
295°
WNW
311°
NW
304°
NW
241°
WSW
190°
S
242°
WSW

N
83°
E
123°
ESE
69°
ENE
72°
ENE
83°
E
68°
ENE
15°
NNE
73°
ENE
10°
N
360°
N
347°
NNW
331°
NNW
290°
WNW
274°
W
290°
WNW
278°
W
284°
WNW
301°
WNW

Daily Forecast

Date High Low Precip. Humidity
Today
Jul 13

Clouds
94 °F
71 °F
0%
58%
Sunday
Jul 14

Clouds
101 °F
74 °F
0%
26%
Monday
Jul 15

Rain
103 °F
73 °F
20%
26%
Tuesday
Jul 16

Rain
106 °F
74 °F
100%
22%
Wednesday
Jul 17

Rain
101 °F
74 °F
100%
28%
Thursday
Jul 18

Rain
94 °F
71 °F
100%
41%
Friday
Jul 19

Rain
85 °F
71 °F
100%
62%
Saturday
Jul 20

Rain
83 °F
72 °F
100%
67%
Sunday
Jul 21

Rain
87 °F
70 °F
100%
60%
Monday
Jul 22

Rain
85 °F
70 °F
100%
67%
Tuesday
Jul 23

Rain
85 °F
71 °F
100%
68%
Wednesday
Jul 24

Rain
81 °F
70 °F
100%
81%
Thursday
Jul 25

Rain
83 °F
68 °F
100%
69%
Friday
Jul 26

Rain
86 °F
68 °F
83%
67%
Saturday
Jul 27

Rain
86 °F
70 °F
100%
67%
Sunday
Jul 28

Rain
90 °F
70 °F
100%
56%

Temperature 8-14 Day Outlook



Precipitation 8-14 Day Outlook






About Us
Contact Us
Site Map
Search Site
Advertise With Us
   
www.MyLakeHartwell.com
THE LAKE HARTWELL WEBSITE

Copyright 2024, Lakes Online
Privacy    |    Legal